Weather reports worldwide

Advertisment
Bastia, France (7790): temperature & dewpoint: 05.12.2019 08:00:00 - 11.12.2019 08:00:00 (CET)Bastia, France (7790): temperature 5cm: 05.12.2019 08:00:00 - 11.12.2019 08:00:00 (CET)Bastia, France (7790): temperature -20cm & temperature -100cm: 05.12.2019 08:00:00 - 11.12.2019 08:00:00 (CET)Bastia, France (7790): wind speed & gusts: 05.12.2019 08:00:00 - 11.12.2019 08:00:00 (CET)Bastia, France (7790): wind direction: 05.12.2019 08:00:00 - 11.12.2019 08:00:00 (CET)Bastia, France (7790): reduced air pressure: 05.12.2019 08:00:00 - 11.12.2019 08:00:00 (CET)Bastia, France (7790): visibility: 05.12.2019 08:00:00 - 11.12.2019 08:00:00 (CET)Bastia, France (7790): sunshine duration: 05.12.2019 08:00:00 - 11.12.2019 08:00:00 (CET)Bastia, France (7790): precipitation: 05.12.2019 08:00:00 - 11.12.2019 08:00:00 (CET)
Date & Time tt [°C] td [°C] tt 5cm [°C] tt -20cm [°C] tt -100cm [°C] ff [km/h] ff [kn] fx [km/h] fx [kn] dd ppp [hPa] vv [km] sd [min] rr [mm]
11.12.2019 08:00:00 7,0 1,5 5,6 12,2 14,8 15 8 24 13 SW 1017,5 60 0 0,0
11.12.2019 07:00:00 7,0 1,7 5,6 12,2 14,8 14 7 25 14 SW 1017,8 60 0 0,0
11.12.2019 06:00:00 6,9 2,0 3,7 12,3 14,8 12 7 21 11 SW 1018,1 60 0 0,0
11.12.2019 05:00:00 6,0 2,1 3,7 12,3 14,8 10 6 18 10 SW 1018,4 60 0 0,0
11.12.2019 04:00:00 6,1 1,6 4,2 12,3 14,8 7 4 26 14 SW 1018,9 60 0 0,0
11.12.2019 03:00:00 11,3 2,3 8,6 12,4 14,8 16 9 33 18 NNE 1019,4 60 0 0,0
11.12.2019 02:00:00 11,8 1,7 8,7 12,4 14,8 21 11 32 18 NNE 1019,5 60 0 0,0
11.12.2019 01:00:00 11,7 2,2 5,6 12,4 14,8 17 9 34 19 NNE 1019,8 60 0 0,0
11.12.2019 00:00:00 8,2 2,0 6,1 12,5 14,8 6 3 30 16 SSE 1019,9 60 0 0,0
10.12.2019 23:00:00 11,9 2,9 8,6 12,5 14,8 15 8 34 18 NNE 1019,8 60 0 0,0
10.12.2019 22:00:00 12,0 2,7 8,2 12,5 14,9 16 8 29 16 NNE 1019,6 60 0 0,0
10.12.2019 21:00:00 12,3 2,7 8,5 12,5 14,9 16 8 30 16 NNE 1019,5 60 0 0,0
10.12.2019 20:00:00 12,5 3,4 4,4 12,5 14,9 19 10 29 16 NNE 1018,9 60 0 -
10.12.2019 19:00:00 9,7 4,7 4,4 12,4 14,9 10 5 19 10 W 1018,5 36 0 0,0
10.12.2019 18:00:00 10,0 4,4 5,3 12,4 14,9 3 2 18 10 N 1017,7 52 0 0,0
10.12.2019 17:00:00 11,5 5,6 7,6 12,4 14,9 8 5 23 12 W 1017,2 50 9 0,0
10.12.2019 16:00:00 13,9 5,3 14,6 12,4 14,9 14 8 27 15 N 1016,7 34 60 0,0
10.12.2019 15:00:00 15,2 5,4 17,2 12,4 14,9 20 11 32 17 N 1016,2 26 60 0,0
10.12.2019 14:00:00 15,8 4,2 19,1 12,4 14,9 21 11 34 18 N 1016,2 24 60 0,0
10.12.2019 13:00:00 16,0 5,3 19,7 12,4 14,9 21 12 33 18 N 1015,9 23 60 0,0
10.12.2019 12:00:00 15,9 6,9 18,6 12,4 14,9 21 11 32 18 NNW 1015,9 27 60 0,0
10.12.2019 11:00:00 15,5 6,2 17,7 12,5 14,9 21 12 36 19 NNW 1015,6 19 60 0,0
10.12.2019 10:00:00 14,9 5,4 15,2 12,5 14,9 21 12 33 18 NNW 1014,9 33 60 0,0
10.12.2019 09:00:00 13,4 4,8 11,5 12,5 14,9 18 10 36 19 NNW 1013,9 44 55 0,0
10.12.2019 08:00:00 13,4 4,0 10,3 12,6 14,9 19 10 34 18 WNW 1012,8 60 0 0,0
10.12.2019 07:00:00 12,6 3,3 9,9 12,6 14,9 14 7 35 19 WNW 1011,7 60 0 0,0
10.12.2019 06:00:00 11,7 5,3 9,2 12,6 14,9 18 10 42 23 NNW 1010,7 60 0 0,0
10.12.2019 05:00:00 13,7 4,6 6,2 12,7 15,0 18 10 37 20 WNW 1009,8 60 0 0,0
10.12.2019 04:00:00 10,5 3,3 5,7 12,7 14,9 10 5 18 10 WSW 1009,3 60 0 0,0
10.12.2019 03:00:00 9,7 2,8 6,5 12,7 15,0 8 4 26 14 SSW 1008,9 60 0 -
10.12.2019 02:00:00 10,8 3,3 8,5 12,8 15,0 12 6 29 16 SW 1008,2 60 0 -
10.12.2019 01:00:00 11,3 3,3 8,3 12,8 15,0 15 8 34 18 SW 1007,9 60 0 0,0
10.12.2019 00:00:00 - - 9,2 - - 17 9 34 19 WSW - 60 - 0,0
09.12.2019 23:00:00 12,4 2,8 6,5 12,8 15,0 9 5 29 15 WSW 1007,5 60 0 0,0
09.12.2019 22:00:00 13,3 2,8 11,5 12,8 15,0 17 9 46 25 W 1007,7 60 0 0,0
09.12.2019 21:00:00 14,1 2,3 11,7 12,8 15,0 21 11 45 25 W 1007,3 60 0 0,0
09.12.2019 20:00:00 13,4 3,2 11,7 12,8 15,0 18 10 42 23 S 1007,8 60 0 0,0
09.12.2019 19:00:00 14,2 3,3 12,6 12,8 15,0 22 12 61 33 WSW 1007,3 60 0 0,0
09.12.2019 18:00:00 13,9 3,9 10,5 12,8 15,0 41 22 67 36 W 1007,7 60 0 0,0
09.12.2019 17:00:00 14,2 3,6 12,7 12,8 15,0 31 17 55 30 NW 1008,2 60 20 0,0
09.12.2019 16:00:00 16,2 1,1 16,5 12,8 15,0 20 11 45 25 WNW 1007,1 60 60 0,0
09.12.2019 15:00:00 17,4 1,8 18,9 12,8 15,0 18 10 77 42 NE 1007,2 17 60 0,0
09.12.2019 14:00:00 18,1 -1,7 18,4 12,8 15,0 37 20 84 45 WSW 1005,4 17 57 0,0
09.12.2019 13:00:00 18,3 -0,1 20,0 12,8 15,0 36 19 61 33 W 1007,1 18 60 0,0
09.12.2019 12:00:00 18,2 0,8 20,2 12,8 15,0 30 16 56 30 W 1009,7 42 60 0,0
09.12.2019 11:00:00 16,6 7,8 16,0 12,9 15,0 9 5 35 19 ENE 1010,5 45 60 0,0
09.12.2019 10:00:00 10,1 8,4 8,4 12,9 15,0 3 2 19 10 NW 1011,5 32 5 0,0
09.12.2019 09:00:00 8,6 6,7 7,4 12,9 15,0 8 4 12 7 SSW 1011,0 58 0 0,0
09.12.2019 08:00:00 8,8 6,6 7,4 13,0 15,0 3 1 19 11 NNW 1011,6 41 0 0,0
09.12.2019 07:00:00 8,0 6,5 6,1 13,0 15,0 11 6 15 8 SSW 1011,3 60 0 0,0
09.12.2019 06:00:00 8,4 6,4 7,3 13,0 15,0 11 6 21 11 SSW 1011,5 60 0 0,0
09.12.2019 05:00:00 8,7 6,7 7,7 13,0 15,0 10 5 20 11 SSW 1012,4 60 0 0,0
09.12.2019 04:00:00 9,0 6,6 8,0 13,1 15,0 10 5 26 14 SSW 1013,7 60 0 0,0
09.12.2019 03:00:00 9,5 6,9 6,2 13,1 15,0 12 7 21 11 SW 1014,8 60 0 0,0
09.12.2019 02:00:00 8,6 7,1 6,4 13,1 15,0 6 3 20 11 SW 1015,6 47 0 -
09.12.2019 01:00:00 10,3 7,5 8,7 13,1 15,0 12 6 19 11 SW 1015,7 60 0 -
09.12.2019 00:00:00 10,3 7,9 8,4 13,1 15,0 11 6 21 12 SW 1016,8 57 0 0,0
08.12.2019 23:00:00 10,9 8,6 8,2 13,1 15,1 15 8 20 11 SW 1017,1 53 0 0,0
08.12.2019 22:00:00 10,1 8,7 8,4 13,1 15,0 9 5 14 8 SW 1017,4 42 0 0,0
08.12.2019 21:00:00 10,9 9,8 9,0 13,1 15,1 7 4 9 5 SW 1017,7 37 0 0,0
08.12.2019 20:00:00 11,4 10,1 8,5 13,0 15,1 6 3 10 5 WSW 1018,0 32 0 0,0
08.12.2019 19:00:00 11,5 10,9 9,7 13,0 15,1 7 4 10 5 SSW 1018,1 20 0 0,0
08.12.2019 18:00:00 11,9 11,1 9,1 12,9 15,1 5 3 7 4 SW 1018,2 10 0 0,0
08.12.2019 17:00:00 13,7 11,7 11,2 12,9 15,1 4 2 7 4 SSW 1018,2 24 11 0,0
08.12.2019 16:00:00 14,5 11,8 14,4 12,8 15,1 4 2 14 7 S 1018,6 45 28 0,0
08.12.2019 15:00:00 16,5 12,6 15,9 12,8 15,1 8 5 17 9 NNE 1018,8 48 37 0,0
08.12.2019 14:00:00 17,2 11,7 21,7 12,8 15,1 10 6 17 9 NNE 1018,9 60 58 0,0
08.12.2019 13:00:00 18,0 11,1 24,9 12,8 15,1 3 2 10 5 NE 1019,2 20 60 0,0
08.12.2019 12:00:00 17,3 10,9 20,7 12,8 15,1 4 2 14 7 S 1020,0 46 60 0,0
08.12.2019 11:00:00 14,7 8,6 14,4 12,9 15,1 9 5 18 10 SSW 1020,8 14 54 0,0
08.12.2019 10:00:00 13,7 8,7 13,3 12,9 15,1 8 4 23 13 WSW 1021,2 55 56 0,0
08.12.2019 09:00:00 11,3 7,2 8,9 13,0 15,1 16 9 24 13 SW 1020,5 60 14 0,0
08.12.2019 08:00:00 9,7 7,1 8,5 13,0 15,1 11 6 19 10 SW 1020,5 60 0 0,0
08.12.2019 07:00:00 9,7 7,5 6,4 - - 9 5 14 7 SW 1020,2 60 0 0,0
08.12.2019 06:00:00 8,8 7,1 5,2 13,0 15,1 6 4 13 7 SW 1019,8 60 0 0,0
08.12.2019 05:00:00 8,4 7,0 5,5 13,1 15,1 5 3 11 6 SSW 1019,8 60 0 0,0
08.12.2019 04:00:00 8,3 7,4 6,3 13,1 15,1 8 4 13 7 SW 1019,9 58 0 0,0
08.12.2019 03:00:00 8,9 7,3 6,4 13,2 15,1 8 4 14 7 SW 1020,3 59 0 -
08.12.2019 02:00:00 - - 6,4 13,2 15,1 7 4 11 6 SSW - 57 0 -
08.12.2019 01:00:00 9,1 8,0 4,4 13,2 15,1 8 4 10 6 SW 1020,5 52 0 0,2
08.12.2019 00:00:00 8,8 8,0 5,4 13,2 15,1 8 4 11 6 SW 1020,7 41 0 0,0
07.12.2019 23:00:00 9,0 8,4 3,9 13,3 15,1 10 5 12 6 SW 1020,7 23 0 0,0
07.12.2019 22:00:00 9,5 8,9 4,4 13,2 15,1 6 3 9 5 SSW 1020,6 41 0 0,0
07.12.2019 21:00:00 9,6 9,1 4,8 13,2 15,1 7 4 11 6 SSW 1020,1 20 0 0,0
07.12.2019 20:00:00 10,1 9,6 5,4 13,2 15,1 7 4 10 6 SW 1020,3 13 0 0,0
07.12.2019 19:00:00 10,9 10,3 5,6 13,2 15,1 4 2 7 4 W 1020,2 10 0 0,0
07.12.2019 18:00:00 12,1 11,2 8,4 13,1 15,1 6 4 9 5 WSW 1019,8 13 0 0,0
07.12.2019 17:00:00 12,7 11,4 8,6 13,0 15,1 4 2 6 4 S 1019,4 18 7 0,0
07.12.2019 16:00:00 15,3 12,2 16,5 13,0 15,1 6 3 11 6 E 1019,0 53 52 0,0
07.12.2019 15:00:00 16,6 11,9 20,5 13,0 15,1 9 5 18 10 ESE 1018,8 44 60 0,0
07.12.2019 14:00:00 16,9 12,0 21,3 13,0 15,1 11 6 17 9 ESE 1019,0 39 60 0,0
07.12.2019 13:00:00 18,0 11,3 24,6 13,0 15,1 6 3 11 6 E 1019,4 53 60 0,0
07.12.2019 12:00:00 17,1 10,7 23,9 13,0 15,1 4 2 10 5 N 1019,9 51 60 0,0
07.12.2019 11:00:00 15,8 10,1 18,3 13,1 15,1 3 2 12 6 SSW 1020,3 59 60 0,0
07.12.2019 10:00:00 13,1 9,2 13,9 13,2 15,2 8 5 14 8 SSW 1020,3 60 60 0,0
07.12.2019 09:00:00 10,8 7,8 6,9 13,2 15,2 9 5 14 8 SSW 1020,4 44 58 0,0
07.12.2019 08:00:00 8,1 6,6 6,1 13,2 15,1 8 4 14 7 SSW 1020,3 60 0 0,0
07.12.2019 07:00:00 7,9 6,7 6,1 13,3 15,1 9 5 15 8 SSW 1020,0 60 0 0,0
07.12.2019 06:00:00 8,9 7,0 7,1 13,3 15,2 9 5 17 9 SW 1019,8 60 0 0,0
07.12.2019 05:00:00 10,0 7,4 8,9 13,3 15,2 11 6 24 13 SW 1019,9 60 0 0,0
07.12.2019 04:00:00 9,7 7,6 8,5 13,3 15,1 12 7 21 12 SW 1020,1 60 0 0,0
07.12.2019 03:00:00 9,7 8,1 7,4 13,4 15,2 13 7 19 11 SW 1020,5 60 0 0,0
07.12.2019 02:00:00 9,5 7,8 8,1 13,4 15,2 9 5 19 11 SW 1020,4 57 0 0,0
07.12.2019 01:00:00 10,6 8,4 9,4 13,4 15,2 10 5 23 12 SW 1020,6 53 0 0,0
07.12.2019 00:00:00 10,7 8,6 8,7 13,5 15,2 11 6 23 13 SW 1021,1 43 0 0,0
06.12.2019 23:00:00 10,5 9,1 7,6 13,4 15,2 11 6 16 9 SW 1021,2 53 0 0,0
06.12.2019 22:00:00 9,6 8,8 4,6 13,4 15,2 9 5 13 7 SW 1021,2 39 0 0,0
06.12.2019 21:00:00 9,7 9,1 5,0 13,4 15,2 3 2 10 5 SSW 1021,1 17 0 0,0
06.12.2019 20:00:00 10,0 9,4 7,5 13,3 15,2 6 3 10 5 SW 1021,2 16 0 0,2
06.12.2019 19:00:00 11,0 10,2 7,7 13,3 15,2 7 4 9 5 WSW 1021,2 11 0 0,0
06.12.2019 18:00:00 12,0 11,1 7,9 13,3 15,2 5 3 8 5 WSW 1020,9 13 0 0,0
06.12.2019 17:00:00 13,2 11,1 11,1 13,2 15,2 8 4 11 6 NNE 1020,6 58 13 0,0
06.12.2019 16:00:00 15,1 12,4 15,1 13,2 15,2 3 1 7 4 N 1020,8 19 24 0,0
06.12.2019 15:00:00 14,9 12,8 15,2 13,2 15,2 3 2 9 5 ESE 1020,8 14 0 0,0
06.12.2019 14:00:00 15,4 12,3 16,1 13,1 15,2 5 3 12 7 ESE 1021,1 16 9 0,0
06.12.2019 13:00:00 17,1 12,8 19,7 13,1 15,2 8 4 16 8 ESE 1021,5 18 47 0,0
06.12.2019 12:00:00 17,4 11,9 22,2 13,1 15,2 6 3 15 8 SE 1022,1 19 60 0,0
06.12.2019 11:00:00 16,4 11,3 17,1 13,1 15,2 6 3 11 6 S 1023,0 48 60 0,0
06.12.2019 10:00:00 14,3 10,7 13,5 13,2 15,2 8 4 14 8 SSW 1023,0 19 54 0,0
06.12.2019 09:00:00 12,3 9,8 9,8 13,1 15,2 6 3 13 7 SW 1022,7 56 19 0,0
06.12.2019 08:00:00 10,8 9,2 9,8 13,2 15,3 6 3 12 7 SSW 1022,4 58 0 0,0
06.12.2019 07:00:00 11,2 9,5 10,1 13,2 15,2 8 4 17 9 SW 1022,3 59 0 0,0
06.12.2019 06:00:00 11,1 9,5 10,0 13,2 15,3 8 4 13 7 SW 1022,1 55 0 0,0
06.12.2019 05:00:00 11,1 9,7 9,0 13,2 15,2 7 4 15 8 SW 1022,3 51 0 0,0
06.12.2019 04:00:00 10,2 9,4 7,9 13,2 15,3 9 5 13 7 SW 1022,1 40 0 0,0
06.12.2019 03:00:00 10,6 9,4 7,3 13,2 15,2 8 4 15 8 SSW 1022,5 46 0 0,0
06.12.2019 02:00:00 10,2 9,6 7,6 13,2 15,3 7 4 9 5 SSW 1022,5 11 0 0,0
06.12.2019 01:00:00 11,7 11,2 10,6 13,1 15,2 5 3 14 7 SW 1022,6 14 0 0,4
06.12.2019 00:00:00 11,9 11,4 11,1 13,1 15,3 9 5 12 7 SW 1023,0 12 0 0,2
05.12.2019 23:00:00 11,9 11,3 11,2 13,1 15,3 4 2 11 6 SW 1023,1 13 0 0,0
05.12.2019 22:00:00 11,9 11,4 10,7 13,1 15,3 5 3 9 5 W 1023,0 9 0 0,0
05.12.2019 21:00:00 12,7 11,9 12,0 13,1 15,3 7 4 18 10 W 1023,0 14 0 0,0
05.12.2019 20:00:00 12,4 11,8 11,7 13,1 15,3 6 4 11 6 W 1023,1 9 0 0,2
05.12.2019 19:00:00 12,0 11,5 11,6 13,0 15,3 6 4 11 6 WSW 1022,9 6 0 0,8
05.12.2019 18:00:00 12,0 11,5 11,6 13,0 15,3 6 3 10 5 W 1022,5 3,8 0 0,6
05.12.2019 17:00:00 12,2 11,1 11,6 13,0 15,3 4 2 9 5 W 1022,1 14 0 0,4
05.12.2019 16:00:00 12,8 11,2 12,1 12,9 15,3 3 2 10 5 WSW 1021,9 14 0 0,0
05.12.2019 15:00:00 12,8 11,2 11,9 12,9 15,3 6 3 11 6 WSW 1021,6 20 0 0,6
05.12.2019 14:00:00 13,4 10,0 12,1 12,9 15,3 8 5 16 9 SW 1021,5 26 0 0,0
05.12.2019 13:00:00 12,8 10,3 12,0 12,9 15,3 9 5 16 8 SSW 1021,7 51 0 0,2
05.12.2019 12:00:00 13,5 11,2 13,3 12,9 15,3 10 5 17 9 SSW 1021,9 32 0 0,2
05.12.2019 11:00:00 13,6 10,6 13,1 12,9 15,4 5 3 8 4 S 1021,9 29 0 0,0
05.12.2019 10:00:00 12,1 9,7 10,8 12,9 15,3 5 3 8 5 S 1021,6 20 0 0,0
05.12.2019 09:00:00 10,4 9,0 9,6 13,0 15,3 4 2 10 5 S 1020,8 20 0 0,0
05.12.2019 08:00:00 9,7 8,6 8,9 13,0 15,4 3 2 10 5 NE 1020,4 16 0 0,0

tt = temperature
td = dewpoint
tt 5cm = temperature 5cm
tt -20cm = temperature -20cm
tt -100cm = temperature -100cm
ff = wind speed
fx = gusts
dd = wind direction
ppp = reduced air pressure
vv = visibility
sd = sunshine duration
rr = precipitation

Next stations